User: anonymous   Login
Location: Unspecified
(0.0000°N, 0.0000°E)
Time: 19:11:43
(UTC+00:00)
Language:

PERSEUS M1 - Orbit

View from above orbital plane
View from above orbital plane
View from above satellite
View from above satellite

Ground track
Ground track

The orbit data is extracted from the following two-line orbital elements,

1 40039U 14033AF  18111.20729822  .00000158  00000-0  24330-4 0  9991
2 40039  97.9019  22.5993 0014742  18.7194 341.4560 14.85965325208013
Epoch (UTC): 21 April 2018 04:58:30
Eccentricity: 0.0014742
inclination: 97.9019°
perigee height: 600 km
apogee height: 621 km
right ascension of ascending node: 22.5993°
argument of perigee: 18.7194°
revolutions per day: 14.85965325
mean anomaly at epoch: 341.4560°
orbit number at epoch: 20801

The dashed part of the orbit path shows where the satellite is in the earth's shadow,  

DLR